Overview Statistics Trail Chart Weather Telemetry Raw packets
 

This is the latest recevied weather packets stored in our database for station/object DG3NAD-21. If no packets are shown the sender has not sent any weather packets the latest 10 day(s).

<< 10 11 12 13 14 15 16 >>
Time Temp. Humidity Pressure Rain* Wind** Luminosity Snow
1788354774 24.44° C 44% 1023.3 hPa - - - -
1788353874 23.89° C 46% 1023.5 hPa - - - -
1788352974 23.89° C 47% 1023.6 hPa - - - -
1788352074 23.89° C 48% 1023.6 hPa - - - -
1788351174 23.33° C 49% 1023.7 hPa - - - -
1788350274 23.33° C 50% 1023.7 hPa - - - -
1788349374 22.78° C 50% 1023.9 hPa - - - -
1788348474 22.78° C 50% 1024.1 hPa - - - -
1788347574 23.33° C 50% 1024.3 hPa - - - -
1788346674 22.78° C 51% 1024.4 hPa - - - -
1788345774 22.78° C 51% 1024.5 hPa - - - -
1788344874 22.22° C 52% 1024.5 hPa - - - -
1788343073 21.11° C 57% 1024.8 hPa - - - -
1788342173 20.56° C 58% 1024.8 hPa - - - -
1788341273 20° C 57% 1024.9 hPa - - - -
1788340373 20° C 57% 1025 hPa - - - -
1788339473 20° C 57% 1025 hPa - - - -
1788338573 20° C 56% 1024.9 hPa - - - -
1788337673 19.44° C 57% 1024.8 hPa - - - -
1788336772 18.89° C 59% 1024.8 hPa - - - -
1788335872 18.33° C 59% 1024.7 hPa - - - -
1788334972 18.89° C 59% 1024.7 hPa - - - -
1788334072 18.33° C 58% 1024.7 hPa - - - -
1788333172 17.78° C 59% 1024.6 hPa - - - -
1788332272 17.78° C 60% 1024.7 hPa - - - -

* Rain since midnight (hover to see other rain measurements)
** Current wind speed in m/s (hover to see current wind gust speed)